Home   Weather   Chennai   Past weeks
Flag for India

Past Weather in Chennai, Tamil Nadu, India — Yesterday and Last 2 Weeks

Now
86 °F

Fog.


Feels Like: 102 °F
Forecast: 97 / 81 °F
Wind: No wind

Location: Madras / Minambakkam

Current Time: Jun 21, 2019 at 5:26:20 am

Latest Report: Jun 21, 2019 at 5:00 am


Visibility: 3 mi

Pressure: 29.62 "Hg

Humidity: 84%

Dew Point: 81 °F

Location of ChennaiLocation

Past Weather in Chennai — Graph

°F

Chennai Temperature Yesterday

Maximum temperature yesterday: 104 °F (at 1:30 pm)
Minimum temperature yesterday: 79 °F (at 4:00 pm)
Average temperature yesterday: 91 °F

High & Low Weather Summary for the Past Weeks

 TemperatureHumidityPressure
High108 °F (Jun 9, 2:00 pm)94% (Jun 20, 4:00 pm)29.74 "Hg (Jun 20, 4:00 pm)
Low79 °F (Jun 20, 4:00 pm)25% (Jun 16, 1:00 pm)29.53 "Hg (Jun 9, 3:00 pm)
Average94 °F56%29.65 "Hg
* Reported Jun 6 3:30 am — Jun 21 4:00 am, Chennai. Weather by CustomWeather, © 2019

Note: Actual official high and low records may vary slightly from our data, if they occured in-between our weather recording intervals... More about our weather records

Advertising

Chennai Weather History for the Previous 24 Hours

Scroll right to see more
 ConditionsComfort  
Time TempWeatherWind HumidityBarometerVisibility
4:00 am
Fri, Jun 21
86 °FPassing clouds.3 mph84%29.59 "Hg4 mi
3:30 am86 °FPassing clouds.3 mph84%29.62 "Hg4 mi
3:00 am86 °FPassing clouds.3 mph84%29.62 "Hg4 mi
2:30 am88 °FPassing clouds.No wind79%29.62 "Hg4 mi
2:00 am88 °FPassing clouds.3 mph79%29.65 "Hg4 mi
1:30 am88 °FPassing clouds.3 mph79%29.65 "Hg4 mi
1:00 am88 °FPassing clouds.7 mph79%29.65 "Hg4 mi
12:30 am88 °FPassing clouds.8 mph84%29.65 "Hg4 mi
12:00 am88 °FPassing clouds.6 mph84%29.68 "Hg4 mi
11:30 pm
Thu, Jun 20
90 °FPassing clouds.8 mph79%29.68 "Hg4 mi
11:00 pm90 °FPassing clouds.9 mph75%29.68 "Hg4 mi
10:30 pm90 °FPassing clouds.10 mph71%29.68 "Hg4 mi
9:30 pm90 °FPassing clouds.7 mph67%29.65 "Hg4 mi
9:00 pm90 °FPassing clouds.6 mph67%29.65 "Hg4 mi
8:30 pm90 °FPassing clouds.6 mph67%29.65 "Hg4 mi
8:00 pm90 °FPassing clouds.6 mph67%29.62 "Hg4 mi
7:30 pm90 °FPassing clouds.6 mph71%29.62 "Hg4 mi
7:00 pm88 °FScattered clouds.No wind75%29.59 "Hg4 mi
6:30 pm88 °FBroken clouds.7 mph75%29.59 "Hg4 mi
6:00 pm86 °FFog.No wind79%29.59 "Hg3 mi
5:30 pm84 °FDrizzle. Broken clouds.3 mph79%29.59 "Hg3 mi
5:00 pm82 °FDrizzle. Broken clouds.No wind94%29.59 "Hg3 mi
4:30 pm81 °FDrizzle. Broken clouds.No wind94%29.59 "Hg3 mi
4:00 pm79 °FThunderstorms. Broken clouds.8 mph94%29.59 "Hg1 mi
3:30 pm82 °FThunderstorms. Broken clouds.12 mph89%29.62 "Hg1 mi
3:00 pm95 °FBroken clouds.13 mph50%29.62 "Hg3 mi
2:30 pm100 °FBroken clouds.17 mph40%29.59 "Hg4 mi
2:00 pm104 °FBroken clouds.8 mph33%29.62 "Hg4 mi
1:30 pm104 °FBroken clouds.8 mph33%29.62 "Hg4 mi
1:00 pm102 °FBroken clouds.14 mph35%29.62 "Hg4 mi
12:30 pm102 °FBroken clouds.12 mph35%29.65 "Hg4 mi
11:30 am100 °FPartly sunny.16 mph37%29.68 "Hg4 mi
10:30 am99 °FPartly sunny.9 mph39%29.68 "Hg4 mi
10:00 am97 °FBroken clouds.9 mph42%29.68 "Hg4 mi
9:30 am95 °FBroken clouds.9 mph44%29.68 "Hg4 mi
9:00 am95 °FBroken clouds.9 mph44%29.68 "Hg4 mi
8:30 am95 °FPartly sunny.16 mph44%29.68 "Hg4 mi
8:00 am95 °FPartly sunny.12 mph44%29.68 "Hg4 mi
7:30 am95 °FScattered clouds.12 mph47%29.68 "Hg4 mi
7:00 am93 °FScattered clouds.12 mph49%29.65 "Hg4 mi
6:30 am91 °FScattered clouds.10 mph56%29.65 "Hg4 mi
6:00 am90 °FPassing clouds.9 mph63%29.62 "Hg4 mi
5:30 am90 °FPassing clouds.9 mph63%29.62 "Hg4 mi
5:00 am90 °FPassing clouds.9 mph67%29.62 "Hg4 mi
Weather by CustomWeather, © 2019

See weather overview